Wind_Speed
12 12 12 12 11 10 9 8 8 8 8 8 9 9 9 9 9 9 9 8 8 8 7 7 6 7 7 6 6 6 7 7 6 6 5 5 5 6 7 8 8 9 9
13 13 12 11 11 11 10 9 9 10 9 9 10 9 9 10 10 9 9 9 9 9 8 8 7 7 7 7 7 7 7 7 7 7 7 6 6 6 7 8 9 9 9
14 13 12 12 11 11 10 10 10 10 10 10 10 10 10 10 10 9 9 9 9 9 9 9 8 8 8 8 8 8 8 8 7 8 8 8 7 7 8 8 8 8 9
13 13 13 12 11 11 10 10 10 11 11 11 11 11 10 10 10 10 10 9 9 9 10 9 9 9 9 8 8 8 9 9 8 8 8 8 7 7 8 8 8 8 9
14 13 13 12 12 11 11 11 11 12 12 12 11 11 11 11 11 11 11 10 10 10 10 10 10 10 9 9 8 8 8 8 9 9 8 8 8 8 8 9 9 9 10
14 14 13 13 12 12 12 12 12 13 14 13 13 13 12 12 12 12 12 12 11 11 11 10 10 10 10 10 10 9 9 9 9 9 9 9 9 9 9 9 10 10 10
14 13 13 13 13 13 12 13 14 14 15 15 14 14 14 13 13 13 13 13 12 12 12 11 11 11 11 11 11 10 10 10 10 10 10 10 11 11 11 11 11 11 11
14 13 13 13 14 14 13 14 14 15 15 14 15 15 15 15 14 14 13 13 13 12 12 12 12 12 12 11 11 11 11 12 11 11 11 11 11 12 12 12 13 12 12
14 14 14 15 15 15 14 14 14 14 14 15 15 16 15 15 15 15 14 14 14 13 13 13 13 13 13 13 12 12 13 13 13 13 13 13 13 12 12 13 13 14 13
16 15 15 16 16 15 15 15 15 15 16 16 16 16 16 16 16 15 15 15 15 15 14 14 14 14 14 14 14 14 14 14 14 14 14 15 14 14 14 14 15 15 15
17 17 16 17 17 17 17 17 16 16 17 17 17 17 17 17 16 16 16 16 16 15 15 15 15 15 15 15 15 16 15 15 15 16 16 16 16 16 16 16 17 16 16
17 18 18 18 19 19 19 18 18 17 17 17 17 17 18 18 18 17 17 17 17 16 16 16 16 16 16 16 17 17 17 17 16 17 17 17 17 17 18 18 18 17 17
18 19 20 20 20 21 20 20 19 19 18 18 18 18 19 19 19 18 18 17 17 17 17 17 17 17 18 18 18 18 18 18 18 18 17 18 18 18 18 19 19 19 19
20 21 21 22 22 22 22 21 21 21 20 19 19 19 19 19 20 20 20 19 18 18 18 19 18 19 19 19 19 19 19 19 20 19 19 19 19 19 19 20 20 20 20
22 22 23 23 23 22 22 23 22 22 22 21 21 21 20 20 21 21 21 20 20 20 20 20 20 19 19 19 19 19 20 20 20 20 20 21 21 20 20 20 21 21 21
23 23 24 24 24 23 24 23 23 24 24 23 23 22 21 21 21 21 22 22 22 22 22 21 21 20 20 20 20 20 21 21 20 20 20 21 21 21 22 22 22 23 23
23 24 24 24 24 24 24 24 24 24 25 24 24 23 22 22 22 23 23 24 24 23 23 22 22 22 22 22 21 21 21 22 21 21 21 22 22 22 22 23 23 23 24
23 24 24 23 23 24 23 24 24 25 26 26 25 25 24 24 24 24 25 25 25 24 24 23 24 24 23 23 23 22 22 22 22 22 22 22 22 22 22 22 23 24 24
23 23 23 24 24 24 24 24 24 25 25 25 25 26 25 25 26 25 25 25 25 25 24 24 24 25 25 24 22 23 23 23 22 23 23 23 23 22 23 23 24 24 25
21 22 23 24 25 25 25 26 26 26 26 26 26 26 26 27 27 26 25 25 24 25 25 25 25 25 24 24 23 24 24 24 23 23 24 24 24 24 24 25 25 25 26
22 22 22 23 24 24 25 26 26 26 26 26 27 27 27 27 26 26 26 26 26 26 26 26 26 25 25 25 25 25 26 25 25 24 25 25 26 27 27 26 26 26 26
23 23 24 24 24 25 25 25 26 26 25 25 25 26 26 25 25 25 26 26 26 26 26 26 26 26 26 26 27 27 26 26 26 25 25 26 26 27 27 27 27 27 27
23 24 25 25 26 26 26 26 25 25 25 25 24 24 24 24 24 24 25 26 26 27 27 26 27 27 27 27 28 28 27 27 27 27 27 27 27 27 28 28 29 29 28
24 25 25 26 26 26 26 26 26 26 25 25 24 24 23 24 24 24 25 25 26 26 26 27 27 28 28 27 27 27 28 28 28 29 29 28 28 29 28 29 29 30 30
25 25 25 25 24 24 25 25 25 25 25 25 24 24 24 25 25 25 26 26 26 26 26 27 27 28 27 27 27 26 27 28 29 29 30 29 29 28 28 29 30 30 30
25 25 25 26 25 24 24 25 26 25 25 25 25 25 25 25 25 26 26 27 26 26 27 27 27 27 27 27 27 27 28 28 29 30 30 30 30 30 29 29 29 29 30
Wind_Direction
284 285 289 290 285 283 286 288 293 300 307 310 313 316 319 320 317 317 316 315 311 309 306 301 298 289 284 280 278 272 270 273 271 261 253 250 252 248 247 246 245 246 247
280 283 287 288 284 280 281 282 288 293 300 304 307 307 312 317 319 317 314 310 309 304 301 297 293 291 287 285 280 275 275 271 264 262 262 261 257 255 252 250 249 248 245
275 280 284 283 279 276 280 281 285 290 294 298 299 300 304 309 314 315 314 310 307 304 300 296 290 285 283 283 280 275 275 270 267 269 272 272 269 263 260 258 257 256 254
274 280 280 278 276 275 277 280 282 289 292 294 295 297 300 304 307 308 308 307 306 304 297 292 289 286 285 285 282 277 277 269 266 269 270 268 269 268 267 264 258 262 262
276 282 281 277 274 273 276 279 280 285 291 292 292 294 296 298 301 303 304 303 300 301 300 292 287 285 284 283 283 279 280 272 267 268 266 264 264 263 261 262 262 263 265
274 278 278 274 275 277 277 277 280 285 289 291 292 291 292 294 297 299 300 301 299 298 298 290 283 281 281 279 280 280 280 275 270 265 265 264 262 263 262 264 264 265 266
273 275 276 271 272 277 280 280 281 286 289 290 291 291 289 292 293 294 296 297 295 294 295 291 280 278 279 278 278 277 275 271 269 265 263 263 262 262 261 263 264 262 266
274 275 274 273 273 275 279 282 284 288 292 293 293 293 291 292 291 289 289 292 291 289 288 286 281 278 276 275 277 275 273 270 268 266 264 267 267 266 266 267 266 266 268
274 274 272 272 275 276 277 282 283 287 291 295 297 296 296 293 292 289 286 287 290 290 285 282 279 275 273 273 272 272 271 272 269 266 267 271 269 266 265 267 269 270 269
268 268 268 268 273 276 280 281 283 286 289 292 294 295 296 295 291 289 286 285 286 287 286 281 280 274 272 272 272 274 272 274 270 268 268 268 268 268 269 270 271 271 270
264 265 266 269 269 271 276 278 282 285 286 287 289 291 294 295 294 289 287 283 283 284 285 286 285 279 276 273 271 273 274 273 273 270 269 270 269 270 271 271 272 271 270
264 265 267 270 270 271 274 276 280 283 285 285 285 287 290 291 291 291 291 288 285 283 283 284 286 282 279 275 271 271 274 272 273 273 270 270 270 270 271 271 271 270 271
264 265 267 270 273 273 274 275 277 279 280 281 281 284 287 289 288 288 289 287 285 283 283 283 284 284 282 278 273 270 271 271 271 273 272 271 271 271 271 271 271 270 270
264 266 268 270 273 276 275 276 276 275 276 277 278 281 284 287 288 286 284 282 282 283 282 282 282 283 282 278 272 270 270 270 271 271 271 272 270 271 271 272 271 271 271
265 268 270 271 273 274 276 278 275 273 274 275 276 278 281 284 285 283 281 279 280 282 283 283 282 281 281 279 276 273 272 270 271 272 272 270 270 271 271 272 273 272 273
265 269 271 272 274 275 276 277 276 274 274 274 274 277 280 282 282 282 280 278 279 279 280 279 279 280 280 278 277 275 272 270 271 270 271 271 271 271 271 273 274 273 274
264 266 270 272 272 273 274 276 274 273 275 275 275 275 278 281 280 281 282 280 278 277 276 276 277 277 278 278 278 276 274 272 270 269 271 273 273 273 276 275 275 275 276
264 265 267 271 273 273 272 274 273 274 274 274 275 276 276 278 280 281 281 280 276 274 273 273 274 275 276 277 275 274 275 275 272 271 271 272 273 274 275 276 276 276 277
266 265 265 270 274 274 275 275 276 277 276 275 275 276 275 277 279 279 279 277 275 272 270 271 274 273 274 276 275 274 273 273 273 271 271 272 271 272 274 276 276 276 276
272 271 269 270 273 275 276 276 277 279 279 276 276 276 278 280 278 276 276 275 274 274 272 271 272 272 272 272 273 272 272 272 273 273 272 271 272 274 275 276 276 276 277
275 275 275 274 274 275 275 275 276 279 280 277 275 276 277 278 277 275 273 273 272 273 273 272 272 271 272 272 271 271 272 273 272 273 273 272 273 274 275 276 276 276 276
275 276 277 277 277 278 278 278 278 278 280 279 277 277 278 277 276 275 273 271 271 272 274 274 272 273 273 272 271 271 270 271 272 273 273 274 275 275 274 275 276 276 276
275 277 278 278 277 277 278 279 280 280 281 279 279 279 278 278 278 277 275 274 274 274 274 274 273 273 273 273 274 272 272 271 272 273 273 274 274 274 274 276 276 276 277
275 278 279 280 280 278 277 278 279 280 280 279 279 279 278 278 278 278 276 275 275 275 273 274 274 274 273 273 274 274 273 272 272 273 273 273 273 274 276 276 276 277 278
275 277 279 280 281 281 279 279 280 279 279 279 280 280 279 279 278 278 277 276 275 273 273 274 275 276 275 272 273 274 273 273 272 272 273 274 275 276 276 276 277 277 277
274 276 278 281 281 282 281 280 279 278 279 280 281 282 281 280 279 278 278 277 275 273 273 276 278 278 276 273 273 275 276 275 274 274 274 274 274 274 275 276 277 278 279
Height
5885 5884 5882 5881 5880 5879 5879 5878 5877 5876 5875 5874 5873 5871 5870 5868 5866 5865 5863 5862 5861 5859 5858 5857 5856 5855 5854 5853 5853 5852 5852 5851 5851 5851 5851 5851 5851 5851 5851 5851 5852 5852 5852
5882 5881 5880 5878 5878 5877 5877 5876 5875 5874 5873 5872 5871 5869 5868 5866 5865 5863 5862 5860 5859 5858 5857 5856 5854 5853 5853 5852 5852 5851 5850 5849 5849 5849 5849 5849 5850 5849 5849 5849 5850 5850 5850
5879 5878 5877 5876 5875 5875 5874 5874 5873 5872 5871 5870 5869 5867 5866 5864 5863 5862 5860 5859 5857 5856 5855 5854 5853 5852 5852 5851 5850 5849 5848 5848 5848 5848 5848 5848 5848 5848 5848 5847 5847 5848 5848
5876 5875 5874 5873 5873 5872 5872 5871 5870 5870 5869 5867 5866 5865 5864 5862 5861 5860 5858 5857 5855 5854 5853 5852 5851 5850 5850 5849 5848 5847 5847 5846 5846 5846 5846 5846 5845 5846 5846 5846 5846 5846 5846
5873 5872 5872 5871 5870 5869 5869 5868 5868 5867 5866 5865 5864 5862 5861 5860 5858 5857 5856 5854 5853 5852 5851 5849 5849 5848 5847 5847 5846 5845 5844 5844 5844 5844 5844 5843 5844 5844 5844 5844 5844 5844 5844
5870 5869 5868 5868 5867 5867 5866 5865 5865 5864 5863 5862 5861 5860 5858 5857 5855 5854 5853 5852 5851 5849 5848 5847 5846 5845 5845 5844 5844 5843 5842 5842 5842 5842 5841 5841 5842 5842 5842 5842 5842 5842 5842
5867 5866 5865 5865 5864 5864 5863 5863 5862 5861 5860 5859 5858 5857 5855 5854 5852 5851 5850 5849 5848 5846 5845 5844 5843 5842 5842 5841 5841 5840 5840 5840 5839 5839 5839 5839 5839 5839 5840 5839 5839 5839 5839
5863 5863 5863 5862 5861 5861 5860 5860 5859 5858 5856 5855 5854 5853 5852 5850 5849 5848 5847 5845 5844 5843 5842 5841 5840 5840 5839 5838 5838 5838 5837 5837 5837 5837 5837 5836 5836 5836 5836 5836 5836 5837 5837
5860 5860 5859 5859 5858 5858 5857 5857 5856 5855 5854 5852 5851 5850 5848 5847 5846 5845 5843 5842 5841 5840 5839 5838 5837 5836 5836 5835 5835 5834 5834 5834 5833 5833 5833 5833 5833 5833 5833 5833 5833 5834 5834
5856 5856 5856 5855 5855 5854 5854 5853 5852 5851 5850 5849 5848 5846 5845 5844 5843 5841 5840 5839 5837 5836 5835 5834 5833 5833 5832 5832 5831 5831 5830 5830 5830 5830 5830 5830 5830 5830 5830 5830 5830 5830 5830
5852 5852 5852 5852 5851 5850 5850 5849 5849 5847 5846 5845 5844 5843 5842 5840 5839 5837 5836 5835 5834 5833 5832 5830 5830 5829 5828 5828 5827 5827 5827 5826 5826 5826 5826 5826 5826 5826 5826 5826 5826 5826 5826
5848 5848 5847 5847 5847 5846 5845 5845 5844 5843 5842 5841 5840 5839 5837 5836 5835 5834 5832 5831 5830 5829 5828 5827 5826 5825 5824 5823 5823 5823 5822 5822 5822 5822 5822 5822 5822 5822 5822 5822 5822 5822 5822
5843 5842 5842 5842 5841 5841 5840 5840 5839 5838 5837 5836 5835 5834 5833 5832 5830 5829 5828 5827 5826 5825 5824 5823 5822 5821 5820 5819 5818 5818 5818 5817 5817 5817 5817 5817 5817 5817 5817 5817 5817 5817 5817
5837 5837 5837 5836 5836 5835 5835 5834 5834 5833 5832 5831 5830 5829 5828 5827 5826 5824 5823 5822 5821 5820 5819 5819 5817 5816 5815 5814 5813 5813 5812 5812 5812 5812 5812 5812 5812 5812 5812 5812 5812 5812 5812
5832 5831 5831 5830 5830 5829 5829 5828 5828 5827 5827 5826 5825 5824 5823 5822 5820 5819 5818 5817 5816 5815 5814 5814 5812 5811 5809 5808 5807 5807 5807 5806 5806 5807 5806 5807 5807 5806 5806 5806 5806 5806 5806
5825 5825 5825 5824 5824 5824 5823 5822 5822 5821 5821 5820 5819 5818 5817 5816 5815 5814 5813 5811 5810 5810 5809 5808 5806 5805 5804 5803 5802 5802 5801 5801 5801 5801 5801 5801 5801 5800 5800 5801 5800 5800 5800
5819 5819 5818 5818 5818 5817 5817 5816 5816 5815 5814 5813 5813 5812 5811 5810 5809 5808 5806 5805 5804 5803 5802 5801 5800 5799 5798 5797 5797 5796 5795 5795 5795 5795 5795 5795 5795 5794 5794 5794 5794 5794 5793
5812 5812 5812 5811 5811 5810 5810 5809 5809 5808 5807 5807 5806 5805 5804 5803 5802 5801 5799 5798 5797 5796 5795 5794 5793 5793 5792 5791 5790 5789 5788 5788 5788 5788 5788 5788 5788 5788 5788 5787 5787 5787 5787
5806 5806 5805 5805 5805 5804 5804 5803 5802 5801 5800 5799 5798 5797 5796 5796 5795 5793 5792 5790 5789 5788 5787 5787 5786 5786 5785 5784 5783 5782 5782 5782 5782 5781 5781 5781 5781 5781 5781 5780 5780 5780 5779
5800 5799 5799 5798 5798 5797 5797 5796 5795 5794 5792 5791 5791 5790 5789 5788 5786 5785 5784 5783 5782 5781 5780 5779 5779 5778 5778 5777 5776 5775 5775 5775 5775 5774 5774 5774 5774 5774 5774 5773 5773 5772 5772
5794 5793 5792 5792 5791 5790 5789 5788 5787 5786 5785 5784 5783 5782 5781 5780 5778 5777 5776 5775 5774 5773 5772 5772 5771 5770 5770 5769 5769 5768 5768 5768 5767 5767 5767 5767 5767 5767 5766 5766 5765 5764 5764
5787 5787 5786 5785 5784 5783 5782 5781 5780 5779 5778 5776 5775 5774 5773 5772 5770 5769 5768 5767 5766 5765 5764 5764 5763 5762 5761 5761 5760 5760 5760 5760 5760 5760 5759 5759 5759 5758 5758 5758 5757 5756 5755
5780 5780 5779 5778 5777 5776 5775 5773 5772 5771 5770 5769 5768 5766 5765 5764 5763 5762 5761 5760 5759 5757 5756 5756 5755 5754 5753 5753 5752 5752 5752 5751 5751 5751 5751 5751 5751 5750 5750 5749 5748 5748 5747
5773 5773 5772 5771 5770 5768 5767 5766 5765 5764 5762 5761 5760 5759 5758 5756 5755 5754 5753 5752 5751 5750 5749 5748 5747 5746 5745 5744 5743 5743 5743 5742 5742 5742 5742 5742 5742 5742 5741 5740 5740 5739 5739
5766 5765 5764 5763 5762 5761 5760 5758 5757 5756 5755 5754 5753 5751 5750 5749 5748 5746 5745 5744 5743 5742 5741 5740 5739 5737 5736 5735 5735 5734 5734 5733 5733 5733 5733 5733 5733 5732 5732 5731 5731 5730 5729
5759 5758 5757 5756 5755 5753 5752 5751 5750 5748 5747 5746 5745 5744 5742 5741 5740 5738 5737 5735 5734 5733 5733 5732 5730 5729 5728 5727 5726 5726 5725 5724 5724 5724 5724 5724 5724 5723 5723 5722 5722 5721 5720